STARLINK-32447, 61261

Orbit data source: Space-Track

STARLINK-32447, 61261 is a payload satellite owned by SpaceX/Seattle (US) in LEO that was launched on Wed, 25 Sep 2024 UTC via an FALCON 9 launch vehicle from the Air Force Western Test Range (AFWTR). Payload-class satellites include a variety of spacecraft equipped with specific instruments for various scientific and technological missions. These include communications satellites like Starlink; space stations such as the ISS; scientific satellites like the Hubble; Earth observation satellites from companies like Planet Labs, Umbra, and HawkEye 360; GPS; miniature CubeSats for education and research; and military/defense satellites.

Loading next visibility...
Identifier
61261, 2024-175U
Orbit
LEO
Last TLE update
17 hours ago
Origin
Manufacturer
SpaceX/Seattle
Mission
Operational Commercial Communications
Bus & Motor
STARLINK V2M, Unknown motor
Mass
730 kg wet, ~700 kg dry
Launch date (UTC)
2024-09-25 (10 months ago)
Launch vehicle
FALCON 9
Launch site
Air Force Western Test Range (AFWTR)
Object type
Payload
Rocket body
Debris
Shape & HBR
Box + 2 Pan, 14.5 m
Radar Cross Section
33.884 m², Large (>1 m²)

Expand to show TLE details & history

TLE from 17 hours ago
0 STARLINK-32447
1 61261U 24175U   25199.27219787 -.00000124  00000-0  79532-5 0  9993
2 61261  53.1599 202.8545 0001308  86.0803 274.0347 15.30188943 45562
Epoch: 2025-07-18T06:31Z
TLE epoch observation values (Epoch: 2025-07-18T06:31:57.895Z)
Latitude
-0.00007°
Longitude
168.53718°
Altitude
476.085 km
Speed
7.629 km/s
True Right ascension
13h 31m 25s
True Declination
0° 00' 00"
Sunlit
Object was in daylight at epoch
Visualization orbit readout
Latitude
-27.35387°
Longitude
142.55767°
Altitude
483.872 km
Speed
7.623 km/s
Apparent Right ascension
09h 38m 21s
Apparent Declination
-78° 15' 46"
Sunlit
Object is in daylight
Visualization observer readout
Local Sidereal Time
12:25:04
Azimuth
189.059° SSW
Elevation
-30.778°
Doppler factor
1
Orbital elements
Apogee altitude
476.401 km
Perigee altitude
474.608 km
Semi-major axis
6,853.642 km
Eccentricity
0.00013
Inclination
53.1599°
RAAN
202.8545°
Arg. of periapsis
86.0803°
True anomaly
274.01975°
Mean anomaly
274.0347°
Eccentric anomaly
274.02722°
Mean motion
3.82526 °/min
Orbital period
94.11 mins
BSTAR
0.0000079532
Loading maneuver chart data...
Loading SW <> Apogee altitude chart data...
Loading historical data...
Loading historical data...
Loading historical data...
Loading historical data...
Loading historical data...
Loading historical data...
Loading historical data...
|